| time (UTC) | temp F | wind direction | speed MPH | gust MPH | rain 1hr in | rain 24hr in | rain mn in | humidity % | barometer mb |
| 20260507200535 | 89 | 130 | 7.0 | 11.0 | 0.00 | 0.00 | 0.00 | 54 | 1013.0 |
| 20260507200054 | 90 | 157 | 5.0 | 10.0 | 0.00 | 0.00 | 0.00 | 57 | 1013.2 |
| 20260507195534 | 90 | 153 | 2.0 | 10.0 | 0.00 | 0.00 | 0.00 | 55 | 1013.3 |
| 20260507195034 | 90 | 143 | 4.0 | 9.0 | 0.00 | 0.00 | 0.00 | 56 | 1013.4 |
| 20260507194543 | 90 | 123 | 1.0 | 12.0 | 0.00 | 0.00 | 0.00 | 56 | 1013.6 |
| 20260507194037 | 90 | 163 | 4.0 | 13.0 | 0.00 | 0.00 | 0.00 | 57 | 1013.7 |
| 20260507193535 | 90 | 176 | 5.0 | 13.0 | 0.00 | 0.00 | 0.00 | 56 | 1013.8 |
| 20260507193049 | 89 | 175 | 4.0 | 13.0 | 0.00 | 0.00 | 0.00 | 57 | 1013.8 |
| 20260507192534 | 89 | 156 | 6.0 | 13.0 | 0.00 | 0.00 | 0.00 | 56 | 1013.9 |
| 20260507192032 | 89 | 148 | 2.0 | 8.0 | 0.00 | 0.00 | 0.00 | 58 | 1014.0 |
| 20260507191550 | 89 | 28 | 2.0 | 8.0 | 0.00 | 0.00 | 0.00 | 57 | 1014.1 |
| 20260507191035 | 89 | 136 | 3.0 | 8.0 | 0.00 | 0.00 | 0.00 | 56 | 1014.3 |
| 20260507190532 | 89 | 259 | 3.0 | 11.0 | 0.00 | 0.00 | 0.00 | 60 | 1014.3 |
| 20260507190044 | 88 | 159 | 6.0 | 11.0 | 0.00 | 0.00 | 0.00 | 58 | 1014.5 |
| 20260507185534 | 88 | 150 | 4.0 | 9.0 | 0.00 | 0.00 | 0.00 | 60 | 1014.6 |
| 20260507185034 | 88 | 150 | 2.0 | 9.0 | 0.00 | 0.00 | 0.00 | 60 | 1014.5 |
| 20260507184550 | 88 | 154 | 4.0 | 11.0 | 0.00 | 0.00 | 0.00 | 59 | 1014.7 |
| 20260507184035 | 88 | 144 | 5.0 | 11.0 | 0.00 | 0.00 | 0.00 | 59 | 1014.9 |
| 20260507183534 | 89 | 180 | 5.0 | 17.0 | 0.00 | 0.00 | 0.00 | 59 | 1014.9 |
| 20260507183052 | 89 | 177 | 5.0 | 17.0 | 0.00 | 0.00 | 0.00 | 59 | 1015.1 |
| 20260507182534 | 88 | 177 | 4.0 | 15.0 | 0.00 | 0.00 | 0.00 | 60 | 1015.1 |
| 20260507182035 | 89 | 279 | 5.0 | 14.0 | 0.00 | 0.00 | 0.00 | 58 | 1015.1 |
| 20260507181544 | 89 | 274 | 3.0 | 10.0 | 0.00 | 0.00 | 0.00 | 57 | 1015.2 |
| 20260507181034 | 89 | 140 | 2.0 | 9.0 | 0.00 | 0.00 | 0.00 | 57 | 1015.3 |
| 20260507180534 | 88 | 160 | 3.0 | 9.0 | 0.00 | 0.00 | 0.00 | 62 | 1015.3 |
| 20260507180048 | 88 | 0 | 4.0 | 9.0 | 0.00 | 0.00 | 0.00 | 58 | 1015.3 |
| 20260507175534 | 89 | 172 | 3.0 | 12.0 | 0.00 | 0.00 | 0.00 | 60 | 1015.3 |
| 20260507175035 | 89 | 241 | 4.0 | 12.0 | 0.00 | 0.00 | 0.00 | 60 | 1015.4 |
| 20260507174552 | 89 | 265 | 2.0 | 11.0 | 0.00 | 0.00 | 0.00 | 61 | 1015.3 |
| 20260507174034 | 88 | 165 | 3.0 | 11.0 | 0.00 | 0.00 | 0.00 | 60 | 1015.3 |
| 20260507173534 | 88 | 238 | 3.0 | 14.0 | 0.00 | 0.00 | 0.00 | 62 | 1015.4 |
| 20260507173056 | 88 | 105 | 4.0 | 14.0 | 0.00 | 0.00 | 0.00 | 60 | 1015.4 |
| 20260507172535 | 88 | 157 | 4.0 | 12.0 | 0.00 | 0.00 | 0.00 | 62 | 1015.4 |
| 20260507172035 | 87 | 141 | 5.0 | 12.0 | 0.00 | 0.00 | 0.00 | 61 | 1015.4 |
| 20260507171555 | 87 | 175 | 8.0 | 12.0 | 0.00 | 0.00 | 0.00 | 61 | 1015.4 |
| 20260507171034 | 88 | 181 | 2.0 | 11.0 | 0.00 | 0.00 | 0.00 | 62 | 1015.5 |
| 20260507170531 | 87 | 223 | 4.0 | 12.0 | 0.00 | 0.00 | 0.00 | 63 | 1015.6 |
| 20260507170049 | 87 | 127 | 4.0 | 12.0 | 0.00 | 0.00 | 0.00 | 63 | 1015.6 |
| 20260507165534 | 86 | 187 | 6.0 | 14.0 | 0.00 | 0.00 | 0.00 | 64 | 1015.6 |
| 20260507165037 | 86 | 123 | 9.0 | 16.0 | 0.00 | 0.00 | 0.00 | 64 | 1015.6 |
| 20260507164549 | 86 | 153 | 6.0 | 16.0 | 0.00 | 0.00 | 0.00 | 65 | 1015.7 |
| 20260507164034 | 86 | 144 | 5.0 | 14.0 | 0.00 | 0.00 | 0.00 | 66 | 1015.8 |
| 20260507163533 | 86 | 206 | 4.0 | 14.0 | 0.00 | 0.00 | 0.00 | 66 | 1015.8 |
| 20260507163046 | 86 | 169 | 6.0 | 12.0 | 0.00 | 0.00 | 0.00 | 68 | 1015.8 |
| 20260507162535 | 85 | 148 | 6.0 | 14.0 | 0.00 | 0.00 | 0.00 | 68 | 1016.0 |
| 20260507162037 | 85 | 125 | 9.0 | 14.0 | 0.00 | 0.00 | 0.00 | 67 | 1016.0 |
| 20260507161552 | 85 | 176 | 4.0 | 12.0 | 0.00 | 0.00 | 0.00 | 70 | 1016.0 |
| 20260507161034 | 85 | 150 | 6.0 | 14.0 | 0.00 | 0.00 | 0.00 | 68 | 1016.1 |
| 20260507160535 | 84 | 197 | 5.0 | 15.0 | 0.00 | 0.00 | 0.00 | 70 | 1016.1 |
| 20260507160048 | 84 | 207 | 7.0 | 15.0 | 0.00 | 0.00 | 0.00 | 69 | 1016.1 |
| 20260507155534 | 84 | 142 | 8.0 | 13.0 | 0.00 | 0.00 | 0.00 | 70 | 1016.2 |
| 20260507155034 | 84 | 154 | 6.0 | 14.0 | 0.00 | 0.00 | 0.00 | 70 | 1016.2 |
| 20260507154550 | 84 | 175 | 7.0 | 14.0 | 0.00 | 0.00 | 0.00 | 71 | 1016.2 |
| 20260507154034 | 84 | 135 | 7.0 | 14.0 | 0.00 | 0.00 | 0.00 | 70 | 1016.3 |
| 20260507153534 | 84 | 153 | 2.0 | 13.0 | 0.00 | 0.00 | 0.00 | 71 | 1016.3 |
| 20260507153058 | 83 | 170 | 3.0 | 13.0 | 0.00 | 0.00 | 0.00 | 72 | 1016.5 |
| 20260507152534 | 83 | 167 | 6.0 | 13.0 | 0.00 | 0.00 | 0.00 | 71 | 1016.5 |
| 20260507152035 | 82 | 145 | 6.0 | 13.0 | 0.00 | 0.00 | 0.00 | 71 | 1016.6 |
| 20260507151547 | 82 | 158 | 8.0 | 12.0 | 0.00 | 0.00 | 0.00 | 72 | 1016.5 |
| 20260507151034 | 82 | 171 | 5.0 | 12.0 | 0.00 | 0.00 | 0.00 | 72 | 1016.6 |
| 20260507150534 | 82 | 196 | 4.0 | 16.0 | 0.00 | 0.00 | 0.00 | 73 | 1016.5 |
| 20260507150049 | 82 | 148 | 8.0 | 16.0 | 0.00 | 0.00 | 0.00 | 71 | 1016.6 |
| 20260507145535 | 82 | 182 | 2.0 | 13.0 | 0.00 | 0.00 | 0.00 | 74 | 1016.6 |
| 20260507145034 | 81 | 258 | 6.0 | 13.0 | 0.00 | 0.00 | 0.00 | 73 | 1016.7 |
| 20260507144545 | 81 | 151 | 4.0 | 11.0 | 0.00 | 0.00 | 0.00 | 74 | 1016.7 |
| 20260507144036 | 81 | 196 | 6.0 | 11.0 | 0.00 | 0.00 | 0.00 | 74 | 1016.7 |
| 20260507143534 | 81 | 139 | 5.0 | 11.0 | 0.00 | 0.00 | 0.00 | 74 | 1016.7 |
| 20260507143043 | 81 | 190 | 4.0 | 11.0 | 0.00 | 0.00 | 0.00 | 75 | 1016.8 |
| 20260507142534 | 80 | 153 | 6.0 | 11.0 | 0.00 | 0.00 | 0.00 | 75 | 1016.8 |
| 20260507142034 | 80 | 184 | 6.0 | 12.0 | 0.00 | 0.00 | 0.00 | 75 | 1016.8 |
| 20260507141550 | 80 | 167 | 7.0 | 12.0 | 0.00 | 0.00 | 0.00 | 74 | 1016.7 |
| 20260507141034 | 80 | 211 | 3.0 | 12.0 | 0.00 | 0.00 | 0.00 | 75 | 1016.7 |
| 20260507140534 | 80 | 167 | 2.0 | 11.0 | 0.00 | 0.00 | 0.00 | 75 | 1016.6 |
| 20260507140101 | 80 | 112 | 3.0 | 11.0 | 0.00 | 0.00 | 0.00 | 76 | 1016.7 |
| 20260507135537 | 79 | 215 | 3.0 | 13.0 | 0.00 | 0.00 | 0.00 | 76 | 1016.8 |
| 20260507135034 | 78 | 158 | 5.0 | 13.0 | 0.00 | 0.00 | 0.00 | 76 | 1016.8 |
| 20260507134546 | 78 | 157 | 6.0 | 12.0 | 0.00 | 0.00 | 0.00 | 77 | 1016.9 |
| 20260507134033 | 78 | 171 | 7.0 | 12.0 | 0.00 | 0.00 | 0.00 | 77 | 1017.0 |
| 20260507133534 | 78 | 185 | 6.0 | 13.0 | 0.00 | 0.00 | 0.00 | 78 | 1016.9 |
| 20260507133052 | 77 | 173 | 6.0 | 13.0 | 0.00 | 0.00 | 0.00 | 79 | 1016.8 |
| 20260507132533 | 77 | 142 | 7.0 | 11.0 | 0.00 | 0.00 | 0.00 | 79 | 1016.8 |
| 20260507132034 | 77 | 175 | 7.0 | 11.0 | 0.00 | 0.00 | 0.00 | 81 | 1016.7 |
| 20260507131546 | 76 | 138 | 4.0 | 11.0 | 0.00 | 0.00 | 0.00 | 82 | 1016.7 |
| 20260507131037 | 76 | 127 | 5.0 | 10.0 | 0.00 | 0.00 | 0.00 | 83 | 1016.7 |
| 20260507130534 | 75 | 156 | 6.0 | 10.0 | 0.00 | 0.00 | 0.00 | 83 | 1016.6 |
| 20260507130045 | 75 | 174 | 3.0 | 9.0 | 0.00 | 0.00 | 0.00 | 84 | 1016.5 |
| 20260507125534 | 74 | 157 | 3.0 | 9.0 | 0.00 | 0.00 | 0.00 | 86 | 1016.6 |
| 20260507125034 | 74 | 136 | 4.0 | 9.0 | 0.00 | 0.00 | 0.00 | 87 | 1016.6 |
| 20260507124543 | 73 | 149 | 5.0 | 9.0 | 0.00 | 0.00 | 0.00 | 88 | 1016.6 |
| 20260507124034 | 72 | 150 | 5.0 | 9.0 | 0.00 | 0.00 | 0.00 | 90 | 1016.7 |
| 20260507123533 | 71 | 164 | 2.0 | 5.0 | 0.00 | 0.00 | 0.00 | 93 | 1016.7 |
| 20260507123046 | 70 | 159 | 2.0 | 5.0 | 0.00 | 0.00 | 0.00 | 94 | 1016.6 |
| 20260507122534 | 70 | 100 | 2.0 | 4.0 | 0.00 | 0.00 | 0.00 | 94 | 1016.7 |
| 20260507122034 | 69 | 132 | 1.0 | 4.0 | 0.00 | 0.00 | 0.00 | 94 | 1016.7 |
| 20260507121545 | 68 | 138 | 1.0 | 3.0 | 0.00 | 0.00 | 0.00 | 94 | 1016.7 |
| 20260507121034 | 67 | 142 | 1.0 | 5.0 | 0.00 | 0.00 | 0.00 | 94 | 1016.6 |
| 20260507120534 | 67 | 140 | 3.0 | 5.0 | 0.00 | 0.00 | 0.00 | 94 | 1016.6 |
| 20260507120046 | 67 | 163 | 2.0 | 3.0 | 0.00 | 0.00 | 0.00 | 95 | 1016.6 |
| 20260507115535 | 66 | 145 | 1.0 | 3.0 | 0.00 | 0.00 | 0.00 | 94 | 1016.6 |
| 20260507115035 | 65 | 0 | 0.0 | 0.0 | 0.00 | 0.00 | 0.00 | 95 | 1016.8 |
| 20260507114542 | 65 | 0 | 0.0 | 0.0 | 0.00 | 0.00 | 0.00 | 95 | 1016.7 |
| 20260507114039 | 64 | 0 | 0.0 | 0.0 | 0.00 | 0.00 | 0.00 | 94 | 1016.7 |
| 20260507113535 | 63 | 0 | 0.0 | 0.0 | 0.00 | 0.00 | 0.00 | 94 | 1016.6 |
| 20260507113044 | 62 | 0 | 0.0 | 0.0 | 0.00 | 0.00 | 0.00 | 94 | 1016.5 |
| 20260507112538 | 62 | 0 | 0.0 | 0.0 | 0.00 | 0.00 | 0.00 | 94 | 1016.5 |
| 20260507112041 | 61 | 0 | 0.0 | 0.0 | 0.00 | 0.00 | 0.00 | 94 | 1016.5 |
| 20260507111548 | 61 | 0 | 0.0 | 0.0 | 0.00 | 0.00 | 0.00 | 94 | 1016.5 |
| 20260507111034 | 61 | 0 | 0.0 | 0.0 | 0.00 | 0.00 | 0.00 | 93 | 1016.5 |
| 20260507110533 | 61 | 0 | 0.0 | 0.0 | 0.00 | 0.00 | 0.00 | 93 | 1016.4 |
| 20260507110051 | 61 | 0 | 0.0 | 0.0 | 0.00 | 0.00 | 0.00 | 93 | 1016.4 |
| 20260507105534 | 61 | 0 | 0.0 | 0.0 | 0.00 | 0.00 | 0.00 | 94 | 1016.4 |
| 20260507105034 | 61 | 0 | 0.0 | 0.0 | 0.00 | 0.00 | 0.00 | 93 | 1016.3 |
| 20260507104546 | 60 | 0 | 0.0 | 0.0 | 0.00 | 0.00 | 0.00 | 94 | 1016.1 |
| 20260507104033 | 60 | 0 | 0.0 | 0.0 | 0.00 | 0.00 | 0.00 | 93 | 1016.0 |
| 20260507103536 | 60 | 0 | 0.0 | 0.0 | 0.00 | 0.00 | 0.00 | 93 | 1015.9 |
| 20260507103047 | 60 | 0 | 0.0 | 0.0 | 0.00 | 0.00 | 0.00 | 93 | 1015.9 |
| 20260507102534 | 60 | 0 | 0.0 | 0.0 | 0.00 | 0.00 | 0.00 | 93 | 1015.9 |
| 20260507102037 | 61 | 0 | 0.0 | 0.0 | 0.00 | 0.00 | 0.00 | 93 | 1015.8 |
| 20260507101558 | 61 | 0 | 0.0 | 0.0 | 0.00 | 0.00 | 0.00 | 93 | 1015.8 |
| 20260507101035 | 61 | 0 | 0.0 | 2.0 | 0.00 | 0.00 | 0.00 | 93 | 1015.7 |
| 20260507100534 | 61 | 0 | 0.0 | 2.0 | 0.00 | 0.00 | 0.00 | 93 | 1015.6 |
| 20260507100045 | 61 | 62 | 1.0 | 2.0 | 0.00 | 0.00 | 0.00 | 93 | 1015.5 |
| 20260507095534 | 61 | 62 | 0.0 | 2.0 | 0.00 | 0.00 | 0.00 | 93 | 1015.5 |
| 20260507095033 | 61 | 62 | 1.0 | 2.0 | 0.00 | 0.00 | 0.00 | 93 | 1015.5 |
| 20260507094556 | 61 | 281 | 0.0 | 1.0 | 0.00 | 0.00 | 0.00 | 93 | 1015.5 |
| 20260507094036 | 61 | 0 | 0.0 | 0.0 | 0.00 | 0.00 | 0.00 | 93 | 1015.5 |
| 20260507093535 | 61 | 0 | 0.0 | 0.0 | 0.00 | 0.00 | 0.00 | 93 | 1015.4 |
| 20260507093046 | 61 | 0 | 0.0 | 0.0 | 0.00 | 0.00 | 0.00 | 93 | 1015.4 |
| 20260507092534 | 61 | 0 | 0.0 | 0.0 | 0.00 | 0.00 | 0.00 | 92 | 1015.5 |
| 20260507092033 | 61 | 0 | 0.0 | 0.0 | 0.00 | 0.00 | 0.00 | 92 | 1015.4 |
| 20260507091558 | 61 | 0 | 0.0 | 0.0 | 0.00 | 0.00 | 0.00 | 92 | 1015.4 |
| 20260507091034 | 61 | 0 | 0.0 | 0.0 | 0.00 | 0.00 | 0.00 | 92 | 1015.2 |
| 20260507090534 | 62 | 0 | 0.0 | 0.0 | 0.00 | 0.00 | 0.00 | 92 | 1015.2 |
| 20260507090105 | 62 | 0 | 0.0 | 0.0 | 0.00 | 0.00 | 0.00 | 92 | 1015.1 |
| 20260507085534 | 62 | 0 | 0.0 | 0.0 | 0.00 | 0.00 | 0.00 | 92 | 1014.9 |
| 20260507085035 | 62 | 0 | 0.0 | 0.0 | 0.00 | 0.00 | 0.00 | 92 | 1015.0 |
| 20260507084545 | 62 | 0 | 0.0 | 0.0 | 0.00 | 0.00 | 0.00 | 92 | 1015.0 |
| 20260507084034 | 62 | 0 | 0.0 | 0.0 | 0.00 | 0.00 | 0.00 | 92 | 1015.0 |
| 20260507083537 | 62 | 0 | 0.0 | 0.0 | 0.00 | 0.00 | 0.00 | 92 | 1015.0 |
| 20260507083047 | 62 | 0 | 0.0 | 1.0 | 0.00 | 0.00 | 0.00 | 92 | 1015.0 |
| 20260507082537 | 62 | 0 | 0.0 | 2.0 | 0.00 | 0.00 | 0.00 | 92 | 1015.0 |
| 20260507082035 | 62 | 0 | 0.0 | 2.0 | 0.00 | 0.00 | 0.00 | 92 | 1015.0 |
| 20260507081554 | 62 | 281 | 0.0 | 3.0 | 0.00 | 0.00 | 0.00 | 92 | 1014.9 |
| 20260507081034 | 63 | 281 | 1.0 | 3.0 | 0.00 | 0.00 | 0.00 | 92 | 1014.9 |
| 20260507080534 | 62 | 281 | 2.0 | 4.0 | 0.00 | 0.00 | 0.00 | 92 | 1015.0 |
| 20260507080055 | 62 | 281 | 2.0 | 4.0 | 0.00 | 0.00 | 0.00 | 91 | 1014.9 |
| 20260507075536 | 63 | 261 | 2.0 | 4.0 | 0.00 | 0.00 | 0.00 | 92 | 1014.9 |
| 20260507075034 | 63 | 256 | 0.0 | 2.0 | 0.00 | 0.00 | 0.00 | 92 | 1014.7 |
| 20260507074547 | 63 | 0 | 0.0 | 1.0 | 0.00 | 0.00 | 0.00 | 91 | 1014.6 |
| 20260507074034 | 64 | 0 | 0.0 | 1.0 | 0.00 | 0.00 | 0.00 | 92 | 1014.7 |
| 20260507073534 | 65 | 0 | 0.0 | 4.0 | 0.00 | 0.00 | 0.00 | 92 | 1014.6 |
| 20260507073058 | 65 | 0 | 0.0 | 4.0 | 0.00 | 0.00 | 0.00 | 92 | 1014.7 |
| 20260507072534 | 65 | 63 | 2.0 | 4.0 | 0.00 | 0.00 | 0.00 | 92 | 1014.6 |
| 20260507072034 | 65 | 80 | 2.0 | 4.0 | 0.00 | 0.00 | 0.00 | 92 | 1014.7 |
| 20260507071546 | 65 | 109 | 0.0 | 2.0 | 0.00 | 0.00 | 0.00 | 92 | 1014.9 |
| 20260507071034 | 65 | 0 | 0.0 | 3.0 | 0.00 | 0.00 | 0.00 | 92 | 1015.0 |
| 20260507070534 | 65 | 0 | 0.0 | 3.0 | 0.00 | 0.00 | 0.00 | 93 | 1015.2 |
| 20260507070121 | 64 | 109 | 1.0 | 3.0 | 0.00 | 0.00 | 0.00 | 92 | 1015.2 |
| 20260507065534 | 64 | 97 | 2.0 | 3.0 | 0.00 | 0.00 | 0.00 | 92 | 1015.2 |
| 20260507065036 | 63 | 76 | 1.0 | 3.0 | 0.00 | 0.00 | 0.00 | 92 | 1015.4 |
| 20260507064549 | 63 | 69 | 0.0 | 3.0 | 0.00 | 0.00 | 0.00 | 91 | 1015.5 |
| 20260507064035 | 63 | 0 | 0.0 | 0.0 | 0.00 | 0.00 | 0.00 | 91 | 1015.5 |
| 20260507063534 | 63 | 0 | 0.0 | 0.0 | 0.00 | 0.00 | 0.00 | 91 | 1015.7 |
| 20260507063049 | 63 | 0 | 0.0 | 0.0 | 0.00 | 0.00 | 0.00 | 91 | 1015.6 |
| 20260507062531 | 63 | 0 | 0.0 | 0.0 | 0.00 | 0.00 | 0.00 | 91 | 1015.7 |
| 20260507062034 | 63 | 0 | 0.0 | 0.0 | 0.00 | 0.00 | 0.00 | 91 | 1015.8 |
| 20260507061542 | 63 | 0 | 0.0 | 0.0 | 0.00 | 0.00 | 0.00 | 91 | 1015.7 |
| 20260507061034 | 63 | 0 | 0.0 | 0.0 | 0.00 | 0.00 | 0.00 | 90 | 1015.6 |
| 20260507060536 | 63 | 0 | 0.0 | 0.0 | 0.00 | 0.00 | 0.00 | 90 | 1015.7 |
| 20260507060047 | 63 | 0 | 0.0 | 0.0 | 0.00 | 0.00 | 0.00 | 90 | 1015.9 |
| 20260507055535 | 63 | 0 | 0.0 | 0.0 | 0.00 | 0.00 | 0.00 | 90 | 1016.1 |
| 20260507055034 | 63 | 0 | 0.0 | 0.0 | 0.00 | 0.00 | 0.00 | 89 | 1016.2 |
| 20260507054553 | 64 | 0 | 0.0 | 0.0 | 0.00 | 0.00 | 0.00 | 90 | 1016.2 |
| 20260507054035 | 64 | 0 | 0.0 | 0.0 | 0.00 | 0.00 | 0.00 | 90 | 1016.3 |
| 20260507053535 | 64 | 0 | 0.0 | 0.0 | 0.00 | 0.00 | 0.00 | 90 | 1016.4 |
| 20260507053053 | 64 | 0 | 0.0 | 0.0 | 0.00 | 0.00 | 0.00 | 89 | 1016.5 |
| 20260507052533 | 64 | 0 | 0.0 | 0.0 | 0.00 | 0.00 | 0.00 | 89 | 1016.6 |
| 20260507052035 | 64 | 0 | 0.0 | 0.0 | 0.00 | 0.00 | 0.00 | 89 | 1016.6 |
| 20260507051545 | 64 | 0 | 0.0 | 0.0 | 0.00 | 0.00 | 0.00 | 89 | 1016.6 |
| 20260507051034 | 65 | 0 | 0.0 | 0.0 | 0.00 | 0.00 | 0.00 | 89 | 1016.5 |
| 20260507050534 | 65 | 0 | 0.0 | 0.0 | 0.00 | 0.00 | 0.00 | 89 | 1016.5 |
| 20260507050050 | 65 | 0 | 0.0 | 1.0 | 0.00 | 0.00 | 0.00 | 89 | 1016.6 |
| 20260507045533 | 65 | 0 | 0.0 | 2.0 | 0.00 | 0.00 | 0.00 | 89 | 1016.4 |
| 20260507045039 | 65 | 71 | 0.0 | 2.0 | 0.00 | 0.00 | 0.00 | 89 | 1016.5 |
| 20260507044549 | 65 | 71 | 1.0 | 2.0 | 0.00 | 0.00 | 0.00 | 88 | 1016.5 |
| 20260507044035 | 65 | 71 | 1.0 | 2.0 | 0.00 | 0.00 | 0.00 | 88 | 1016.6 |
| 20260507043534 | 65 | 71 | 0.0 | 1.0 | 0.00 | 0.00 | 0.00 | 88 | 1016.7 |
| 20260507043051 | 65 | 0 | 0.0 | 2.0 | 0.00 | 0.00 | 0.00 | 87 | 1016.7 |
| 20260507042534 | 66 | 0 | 0.0 | 2.0 | 0.00 | 0.00 | 0.00 | 87 | 1016.8 |
| 20260507042035 | 66 | 71 | 1.0 | 2.0 | 0.00 | 0.00 | 0.00 | 87 | 1016.7 |
| 20260507041547 | 66 | 71 | 1.0 | 2.0 | 0.00 | 0.00 | 0.00 | 86 | 1016.6 |
| 20260507041035 | 66 | 71 | 0.0 | 2.0 | 0.00 | 0.00 | 0.00 | 86 | 1016.6 |
| 20260507040533 | 67 | 0 | 0.0 | 2.0 | 0.00 | 0.00 | 0.00 | 86 | 1016.7 |
| 20260507040050 | 67 | 71 | 0.0 | 1.0 | 0.00 | 0.00 | 0.00 | 86 | 1016.5 |
| 20260507035534 | 67 | 0 | 0.0 | 0.0 | 0.00 | 0.00 | 0.00 | 86 | 1016.3 |
| 20260507035033 | 67 | 0 | 0.0 | 0.0 | 0.00 | 0.00 | 0.00 | 85 | 1016.3 |
| 20260507034546 | 67 | 0 | 0.0 | 0.0 | 0.00 | 0.00 | 0.00 | 85 | 1016.3 |
| 20260507034034 | 68 | 0 | 0.0 | 0.0 | 0.00 | 0.00 | 0.00 | 84 | 1016.3 |
| 20260507033537 | 68 | 0 | 0.0 | 2.0 | 0.00 | 0.00 | 0.00 | 84 | 1016.3 |
| 20260507033051 | 68 | 0 | 0.0 | 2.0 | 0.00 | 0.00 | 0.00 | 84 | 1016.3 |
| 20260507032535 | 68 | 0 | 0.0 | 2.0 | 0.00 | 0.00 | 0.00 | 84 | 1016.3 |
| 20260507032034 | 68 | 71 | 0.0 | 2.0 | 0.00 | 0.00 | 0.00 | 84 | 1016.1 |
| 20260507031549 | 68 | 0 | 0.0 | 3.0 | 0.00 | 0.00 | 0.00 | 84 | 1016.2 |
| 20260507031036 | 68 | 71 | 1.0 | 4.0 | 0.00 | 0.00 | 0.00 | 84 | 1016.2 |
| 20260507030533 | 68 | 71 | 2.0 | 4.0 | 0.00 | 0.00 | 0.00 | 84 | 1016.4 |
| 20260507030054 | 69 | 63 | 2.0 | 4.0 | 0.00 | 0.00 | 0.00 | 83 | 1016.3 |
| 20260507025535 | 69 | 87 | 1.0 | 2.0 | 0.00 | 0.00 | 0.00 | 83 | 1016.3 |
| 20260507025035 | 69 | 88 | 0.0 | 1.0 | 0.00 | 0.00 | 0.00 | 82 | 1016.4 |
| 20260507024545 | 69 | 0 | 0.0 | 2.0 | 0.00 | 0.00 | 0.00 | 82 | 1016.4 |
| 20260507024035 | 70 | 0 | 0.0 | 3.0 | 0.00 | 0.00 | 0.00 | 82 | 1016.5 |
| 20260507023537 | 70 | 0 | 0.0 | 4.0 | 0.00 | 0.00 | 0.00 | 82 | 1016.5 |
| 20260507023043 | 70 | 69 | 2.0 | 4.0 | 0.00 | 0.00 | 0.00 | 82 | 1016.2 |
| 20260507022535 | 70 | 74 | 2.0 | 4.0 | 0.00 | 0.00 | 0.00 | 81 | 1016.4 |
| 20260507022035 | 70 | 61 | 2.0 | 4.0 | 0.00 | 0.00 | 0.00 | 81 | 1016.5 |
| 20260507021542 | 70 | 73 | 2.0 | 4.0 | 0.00 | 0.00 | 0.00 | 81 | 1016.3 |
| 20260507021034 | 71 | 98 | 1.0 | 3.0 | 0.00 | 0.00 | 0.00 | 81 | 1016.4 |
| 20260507020533 | 71 | 98 | 1.0 | 3.0 | 0.00 | 0.00 | 0.00 | 80 | 1016.4 |
| 20260507020050 | 71 | 71 | 1.0 | 5.0 | 0.00 | 0.00 | 0.00 | 80 | 1016.5 |
| 20260507015534 | 71 | 69 | 2.0 | 6.0 | 0.00 | 0.00 | 0.00 | 80 | 1016.4 |
| 20260507015031 | 71 | 76 | 3.0 | 6.0 | 0.00 | 0.00 | 0.00 | 79 | 1016.3 |
| 20260507014607 | 72 | 80 | 3.0 | 6.0 | 0.00 | 0.00 | 0.00 | 79 | 1016.3 |
| 20260507014034 | 72 | 86 | 2.0 | 6.0 | 0.00 | 0.00 | 0.00 | 79 | 1016.3 |
| 20260507013534 | 72 | 86 | 3.0 | 7.0 | 0.00 | 0.00 | 0.00 | 78 | 1016.4 |
| 20260507013051 | 72 | 76 | 4.0 | 7.0 | 0.00 | 0.00 | 0.00 | 78 | 1016.2 |
| 20260507012534 | 72 | 74 | 3.0 | 5.0 | 0.00 | 0.00 | 0.00 | 77 | 1016.3 |
| 20260507012034 | 72 | 74 | 3.0 | 7.0 | 0.00 | 0.00 | 0.00 | 76 | 1016.2 |
| 20260507011545 | 73 | 78 | 3.0 | 7.0 | 0.00 | 0.00 | 0.00 | 76 | 1016.1 |
| 20260507011033 | 73 | 90 | 3.0 | 8.0 | 0.00 | 0.00 | 0.00 | 76 | 1016.0 |
| 20260507010535 | 73 | 86 | 4.0 | 8.0 | 0.00 | 0.00 | 0.00 | 75 | 1016.1 |
| 20260507010059 | 73 | 101 | 4.0 | 8.0 | 0.00 | 0.00 | 0.00 | 75 | 1016.1 |
| 20260507005533 | 73 | 65 | 3.0 | 8.0 | 0.00 | 0.00 | 0.00 | 75 | 1016.1 |
| 20260507005034 | 73 | 90 | 4.0 | 8.0 | 0.00 | 0.00 | 0.00 | 75 | 1016.1 |
| 20260507004547 | 73 | 67 | 3.0 | 7.0 | 0.00 | 0.00 | 0.00 | 75 | 1016.1 |
| 20260507004035 | 73 | 67 | 3.0 | 7.0 | 0.00 | 0.00 | 0.00 | 75 | 1016.0 |
| 20260507003536 | 73 | 71 | 3.0 | 7.0 | 0.00 | 0.00 | 0.00 | 75 | 1016.0 |
| 20260507003046 | 73 | 75 | 3.0 | 7.0 | 0.00 | 0.00 | 0.00 | 74 | 1015.9 |
| 20260507002536 | 74 | 76 | 3.0 | 7.0 | 0.00 | 0.00 | 0.00 | 73 | 1015.9 |
| 20260507002035 | 74 | 59 | 3.0 | 7.0 | 0.00 | 0.00 | 0.00 | 72 | 1015.9 |
| 20260507001550 | 75 | 78 | 4.0 | 7.0 | 0.00 | 0.00 | 0.00 | 71 | 1015.9 |
| 20260507001033 | 75 | 73 | 4.0 | 7.0 | 0.00 | 0.00 | 0.00 | 71 | 1015.9 |
| 20260507000534 | 75 | 67 | 3.0 | 7.0 | 0.00 | 0.00 | 0.00 | 70 | 1016.0 |
| 20260507000046 | 76 | 58 | 3.0 | 7.0 | 0.00 | 0.00 | 0.00 | 69 | 1016.0 |
| 20260506235533 | 76 | 82 | 4.0 | 9.0 | 0.00 | 0.00 | 0.00 | 68 | 1016.0 |
| 20260506235033 | 77 | 79 | 5.0 | 9.0 | 0.00 | 0.00 | 0.00 | 68 | 1016.0 |
| 20260506234546 | 77 | 69 | 4.0 | 10.0 | 0.00 | 0.00 | 0.00 | 67 | 1015.9 |
| 20260506234036 | 78 | 82 | 4.0 | 10.0 | 0.00 | 0.00 | 0.00 | 65 | 1015.8 |
| 20260506233535 | 78 | 58 | 5.0 | 11.0 | 0.00 | 0.00 | 0.00 | 64 | 1015.9 |
| 20260506233047 | 78 | 71 | 6.0 | 11.0 | 0.00 | 0.00 | 0.00 | 64 | 1016.0 |
| 20260506232534 | 79 | 67 | 8.0 | 11.0 | 0.00 | 0.00 | 0.00 | 63 | 1016.0 |
| 20260506232034 | 79 | 73 | 5.0 | 13.0 | 0.00 | 0.00 | 0.00 | 62 | 1016.0 |
| 20260506231545 | 79 | 90 | 8.0 | 13.0 | 0.00 | 0.00 | 0.00 | 61 | 1016.0 |
| 20260506231037 | 80 | 63 | 9.0 | 13.0 | 0.00 | 0.00 | 0.00 | 60 | 1016.0 |
| 20260506230535 | 80 | 64 | 6.0 | 13.0 | 0.00 | 0.00 | 0.00 | 60 | 1015.9 |
| 20260506230053 | 80 | 65 | 9.0 | 13.0 | 0.00 | 0.00 | 0.00 | 61 | 1016.0 |
| 20260506225534 | 81 | 69 | 8.0 | 13.0 | 0.00 | 0.00 | 0.00 | 60 | 1016.0 |
| 20260506225035 | 81 | 61 | 8.0 | 13.0 | 0.00 | 0.00 | 0.00 | 60 | 1015.9 |
| 20260506224545 | 81 | 53 | 8.0 | 14.0 | 0.00 | 0.00 | 0.00 | 59 | 1015.9 |
| 20260506224034 | 81 | 83 | 9.0 | 14.0 | 0.00 | 0.00 | 0.00 | 58 | 1015.9 |
| 20260506223533 | 82 | 79 | 7.0 | 13.0 | 0.00 | 0.00 | 0.00 | 58 | 1015.9 |
| 20260506223046 | 82 | 72 | 8.0 | 14.0 | 0.00 | 0.00 | 0.00 | 56 | 1015.9 |
| 20260506222534 | 82 | 61 | 8.0 | 15.0 | 0.00 | 0.00 | 0.00 | 55 | 1015.9 |
| 20260506222033 | 83 | 83 | 9.0 | 15.0 | 0.00 | 0.00 | 0.00 | 55 | 1015.9 |
| 20260506221548 | 83 | 67 | 7.0 | 13.0 | 0.00 | 0.00 | 0.00 | 55 | 1015.8 |
| 20260506221034 | 83 | 97 | 9.0 | 13.0 | 0.00 | 0.00 | 0.00 | 54 | 1015.9 |
| 20260506220533 | 83 | 61 | 8.0 | 12.0 | 0.00 | 0.00 | 0.00 | 53 | 1015.8 |
| 20260506220052 | 83 | 88 | 7.0 | 12.0 | 0.00 | 0.00 | 0.00 | 54 | 1015.8 |
| 20260506215534 | 84 | 54 | 7.0 | 15.0 | 0.00 | 0.00 | 0.00 | 55 | 1015.8 |
| 20260506215034 | 84 | 63 | 8.0 | 15.0 | 0.00 | 0.00 | 0.00 | 53 | 1015.8 |
| 20260506214549 | 84 | 65 | 8.0 | 12.0 | 0.00 | 0.00 | 0.00 | 53 | 1015.8 |
| 20260506214031 | 84 | 66 | 7.0 | 14.0 | 0.00 | 0.00 | 0.00 | 52 | 1015.8 |
| 20260506213535 | 84 | 77 | 9.0 | 14.0 | 0.00 | 0.00 | 0.00 | 53 | 1015.7 |
| 20260506213045 | 84 | 64 | 8.0 | 15.0 | 0.00 | 0.00 | 0.00 | 53 | 1015.6 |
| 20260506212534 | 84 | 95 | 9.0 | 15.0 | 0.00 | 0.00 | 0.00 | 53 | 1015.7 |
| 20260506212035 | 84 | 88 | 8.0 | 16.0 | 0.00 | 0.00 | 0.00 | 52 | 1015.7 |
| 20260506211546 | 84 | 55 | 9.0 | 16.0 | 0.00 | 0.00 | 0.00 | 53 | 1015.7 |
| 20260506211034 | 85 | 44 | 9.0 | 16.0 | 0.00 | 0.00 | 0.00 | 52 | 1015.7 |
| 20260506210537 | 85 | 55 | 10.0 | 16.0 | 0.00 | 0.00 | 0.00 | 52 | 1015.6 |
| 20260506210049 | 85 | 72 | 12.0 | 16.0 | 0.00 | 0.00 | 0.00 | 51 | 1015.6 |
| 20260506205535 | 85 | 61 | 7.0 | 16.0 | 0.00 | 0.00 | 0.00 | 52 | 1015.7 |
| 20260506205035 | 85 | 78 | 8.0 | 16.0 | 0.00 | 0.00 | 0.00 | 51 | 1015.6 |
| 20260506204542 | 86 | 68 | 9.0 | 15.0 | 0.00 | 0.00 | 0.00 | 51 | 1015.6 |
| 20260506204033 | 86 | 72 | 7.0 | 13.0 | 0.00 | 0.00 | 0.00 | 50 | 1015.6 |
| 20260506203532 | 86 | 59 | 7.0 | 13.0 | 0.00 | 0.00 | 0.00 | 51 | 1015.5 |
| 20260506203051 | 86 | 63 | 9.0 | 14.0 | 0.00 | 0.00 | 0.00 | 50 | 1015.5 |
| 20260506202535 | 86 | 111 | 8.0 | 14.0 | 0.00 | 0.00 | 0.00 | 49 | 1015.6 |
| 20260506202035 | 86 | 75 | 8.0 | 12.0 | 0.00 | 0.00 | 0.00 | 51 | 1015.6 |
| 20260506201606 | 86 | 68 | 6.0 | 13.0 | 0.00 | 0.00 | 0.00 | 51 | 1015.6 |
| 20260506201037 | 86 | 34 | 8.0 | 13.0 | 0.00 | 0.00 | 0.00 | 52 | 1015.7 |